Regional Weather Roundup
Issued by NWS

Home | Current Version | Previous Version | Text Only | Print | Product List | Glossary Off
Versions: 1 2 3 4 5 6 7 8 9 10 11 12 13 14 15 16 17 18 19 20 21 22 23 24 25 26 27 28 29 30 31 32 33 34 35 36 37 38 39 40 41 42 43 44 45 46 47 48 49 50

000
ASUS45 KABQ 271610
RWRNM
WEATHER ROUNDUP FOR NEW MEXICO
NATIONAL WEATHER SERVICE ALBUQUERQUE NM
1000 AM MDT MON APR 27 2015

NOTE: "FAIR" MEANS FEW OR NO CLOUDS BELOW 12,000 FEET AGL WITH NO
       SIGNIFICANT WEATHER OR OBSTRUCTIONS TO VISION.

      THIS PRODUCT IS RELEASED AS TWO VERSIONS.  ONE VERSION NEAR
      THE TOP OF THE HOUR CONTAINING PRELIMINARY DATA FROM ALBUQUERQUE
      AND OTHER STATIONS.  A FINAL VERSION WITH ADDITIONAL DATA IS
      ISSUED ABOUT 10 MINUTES AFTER THE HOUR.

NMZ501-503-504-510>518-271700-
NORTHWEST PLATEAU/NORTHCENTRAL MOUNTAINS

CITY           SKY/WX    TMP DP  RH WIND       PRES   REMARKS
FARMINGTON     SUNNY     51  41  68 CALM      30.07R
LOS ALAMOS     MOSUNNY   46  32  59 NE14G24   30.09R
SANTA FE       CLOUDY    46  36  68 N10       30.05R
TAOS           PTSUNNY   46  32  57 NE7       30.09R
ANGEL FIRE     LGT SNOW  34  28  80 NE6       30.08  WCI  29

$$
NMZ402-403-502-505>509-271700-
WESTCENTRAL MOUNTAINS/SOUTHWEST MOUNTAINS

CITY           SKY/WX    TMP DP  RH WIND       PRES   REMARKS
GALLUP         PTSUNNY   48  39  71 NE7       30.10R
GRANTS         CLOUDY    45  38  76 CALM      30.10R
SILVER CITY      N/A     54  36  50 SE5       30.01R

$$
NMZ407-409-411-412-271700-
SOUTHERN DESERTS

CITY           SKY/WX    TMP DP  RH WIND       PRES   REMARKS
LORDSBURG      FAIR      54  39  58 NW12      29.99R
DEMING         SUNNY     59  39  47 NE15G23   29.97R
LAS CRUCES     SUNNY     58  38  49 N13G20    29.97R
ALAMOGORDO     MOSUNNY   59  39  47 N12       29.94R
T OR C         CLOUDY    54  40  59 NE16G23   30.00R

$$
NMZ519>523-271700-
CENTRAL VALLEYS/CENTRAL HIGHLANDS

CITY           SKY/WX    TMP DP  RH WIND       PRES   REMARKS
ALBUQUERQUE    PTSUNNY   51  39  63 CALM      30.05R
DOUBLE EAGLE   MOSUNNY   45  39  81 N13       30.06R
MORIARTY ARPT  LGT RAIN  44  35  72 NE9       30.07R
CLINES CORNERS LGT RAIN  38  35  89 NE15      30.03R WCI  29
BELEN          CLOUDY    50  40  66 E5        30.05S
SOCORRO        CLOUDY    51  41  69 N10G17    30.05R

$$
NMZ524>526-539-540-271700-
SOUTHCENTRAL MOUNTAINS

CITY           SKY/WX    TMP DP  RH WIND       PRES   REMARKS
RUIDOSO        PTSUNNY   41  36  81 N14G23    30.04R

$$
NMZ527>531-271700-
NORTHEAST HIGHLANDS/NORTHEAST PLAINS

CITY           SKY/WX    TMP DP  RH WIND       PRES   REMARKS
LAS VEGAS      CLOUDY    38  34  85 N29G37    30.06R WCI  26
RATON          CLOUDY    39  33  79 NE21G30   30.10R WCI  29
CLAYTON        RAIN      37  35  92 N26G37    30.06R FOG     WCI  25

$$
NMZ532>537-271700-
EASTCENTRAL PLAINS

CITY           SKY/WX    TMP DP  RH WIND       PRES   REMARKS
TUCUMCARI      RAIN      44  41  89 N18       30.00R FOG
CANNON AFB     NOT AVBL
CLOVIS AIRPORT CLOUDY    45  41  87 N26G35    29.94R

$$
NMZ028-029-538-271700-
SOUTHEAST PLAINS

CITY           SKY/WX    TMP DP  RH WIND       PRES   REMARKS
ROSWELL        CLOUDY    56  41  57 N23G33    29.94R
ARTESIA        PTSUNNY   61  43  51 N24G32    29.94R
CARLSBAD       CLOUDY    60  44  55 N20       29.90R
HOBBS          LGT RAIN  55  48  76 N10       29.89R


$$


USA.gov is the U.S. government's official web portal to all federal, state and local government web resources and services.